Hourly Data Report for September 23, 2017

All times are specified in Local Standard Time (LST). Add 1 hour to adjust for Daylight Saving Time where and when it is observed.

MONCTON INTL A
NEW BRUNSWICK

46°06'44.000" N
64°40'43.000" W
70.70 m
8103201
71705
YQM

Download Data

Hourly Data (September 2017)
Hourly Data Report for September 23, 2017
Temp Definition
°C
Dew Point Temp Definition
°C
Rel Hum Definition
%
Wind Dir Definition
10's deg

Wind Spd Definition
km/h
Visibility Definition
km
Stn Press Definition
kPa
Hmdx Definition


Wind Chill Definition


Weather Definition


TIME
00:00 Legend Double Dagger 10.8 5.1 68 19 7 24.1 101.02     LegendNANA
01:00 Legend Double Dagger 8.0 6.1 88 21 10 24.1 101.02     LegendNANA
02:00 Legend Double Dagger 7.4 6.8 96 20 9 24.1 100.94     Clear
03:00 Legend Double Dagger 7.0 6.3 95 20 14 24.1 100.88     LegendNANA
04:00 Legend Double Dagger 6.1 5.5 95 23 12 24.1 100.80     LegendNANA
05:00 Legend Double Dagger 5.6 5.1 96 22 7 24.1 100.75     Clear
06:00 Legend Double Dagger 5.5 4.9 96 21 9 24.1 100.76     LegendNANA
07:00 Legend Double Dagger 6.7 5.9 95 22 9 24.1 100.72     LegendNANA
08:00 Legend Double Dagger 9.8 7.7 87 22 14 24.1 100.72     Mainly Clear
09:00 Legend Double Dagger 14.5 9.9 73 23 16 24.1 100.69     LegendNANA
10:00 Legend Double Dagger 17.7 10.1 61 22 26 24.1 100.66     LegendNANA
11:00 Legend Double Dagger 20.9 10.9 53 23 23 24.1 100.65     Mainly Clear
12:00 Legend Double Dagger 23.5 10.9 44 22 27 24.1 100.54 25   LegendNANA
13:00 Legend Double Dagger 25.6 9.0 34 23 27 24.1 100.52 26   LegendNANA
14:00 Legend Double Dagger 26.7 9.3 33 23 22 24.1 100.46 28   Mainly Clear
15:00 Legend Double Dagger 27.5 9.9 33 25 26 24.1 100.40 29   LegendNANA
16:00 Legend Double Dagger 27.0 11.2 37 25 18 24.1 100.39 29   LegendNANA
17:00 Legend Double Dagger 25.9 12.1 42 23 14 24.1 100.43 28   Mainly Clear
18:00 Legend Double Dagger 23.9 12.4 48 24 15 24.1 100.48 26   LegendNANA
19:00 Legend Double Dagger 22.9 12.5 52 31 8 24.1 100.56 25   LegendNANA
20:00 Legend Double Dagger 19.3 14.5 73 2 25 24.1 100.65     Mainly Clear
21:00 Legend Double Dagger 17.6 10.9 65 5 19 24.1 100.80     LegendNANA
22:00 Legend Double Dagger 15.5 10.5 72 4 15 24.1 100.86     LegendNANA
23:00 Legend Double Dagger 14.1 10.1 77 7 8 24.1 100.87     Clear

Notes on Data Quality.

Legend

  • E = Estimated
  • M = Missing
  • NA = Not Available
  • ‡ = Partner data that is not subject to review by the National Climate Archives
Date modified: